Location: *
(43.7000°S, 168.7000°W)
Time: 14:31:50
(UTC+00:00)

SL-24 R/B - Pass Details

Date: 07 July 2020
Orbit: 624 x 1077 km, 98.0° (Epoch: 03 August)

Event Time Altitude Azimuth Distance (km) Brightness Sun altitude
Rises 17:53:13 0° 15° (NNE) 2,983 8.1 -9.6°
Reaches altitude 10° 17:55:27 10° 15° (NNE) 2,047 7.3 -9.3°
Maximum altitude 17:59:52 89° 107° (ESE) 643 4.1 -8.5°
Drops below altitude 10° 18:04:15 10° 193° (SSW) 2,041 6.4 -7.8°
Sets 18:06:28 0° 192° (SSW) 2,974 7.2 -7.4°
